10:22
Airports
History
Links
Donate
Help me keep this website running!
Information on this page is community maintained and may be outdated or inaccurate and is intended for simulator navigating and reference only!
Always use approved charts for navigating.
XHAN
Hanley WilliamEdited 07-Mar-2012
Hanley William (XHAN)
England, United Kingdom
4
Lat/Lng:52° 17' 58.46" N / 2° 28' 13.08" W
52.299572 / -2.470299
Elevation:645'ft 197mMSL
ID / ICAO:XHAN
Runways:1
Longest:(05-23) 595.5m 1,954ft Asphalt
Controlled:No
Distance To
Airport ID:
Nearby VORs <50NM
Nearby NDBs
Nearby WeatherUpdated 09-26-16 09:50 GMT
Nearby weather at EGWC, RAF Cosford located 24.6 nautical miles from XHAN
Altimeter: 30.12
Visibility: 6.2 statute miles
Wind: 7 knots (160°)
Temp: 13°c 55°f
Humidity: 82.0%

METAR: EGWC 260950Z 16007KT 9999 RA BKN045 OVC120 13/10 Q1020 BLU

(Powered by phpweather)
Runway 05 / 23
Dimensions:595.5 x 29.9m 1954' x 98'ft
Surface:Asphalt
Runway 05 [A]Runway 23 [B]
Heading:050°TH 230°TH
Lat:
Lng:
52° 17' 52.21"N
2° 28' 25.25"W
52° 18' 4.7"N
2° 28' 0.9"W
Google Map
Nearby Airports
4 Milson 5.3 NM
EG70 NW 323°
(C) Wolverhampton 17.4 NM
EGBO NNE 30°
(U) Shobdon Aerodrome 17.9 NM
EGBS WSW 257°
4 Croft Farm 20.5 NM
EG24 SE 136°
4 Ledbury 20.5 NM
XLED S 180°
(C) RAF Cosford 24.6 NM
EGWC (WX) NNE 16°
4 Bidford 28.6 NM
XBID ESE 113°
VFR Chart
Flight Planning at SkyVector.com